Flag for U.S.A. Weather past 2 weeks in Chula Vista, California, U.S.A.

Now
80 °F

Sunny.


Feels Like: 81 °F
Forecast: 66 / 79 °F
Wind: 5 mph from North

Location: Brown Field Municipal Airport

Current Time: Aug 31, 2015 at 12:50:41 PM

Latest Report: Aug 31, 2015 at 11:53 AM


Visibility: 10 mi

Pressure: 29.90 "Hg

Humidity: 51%

Dew point: 60 °F

Location of Chula VistaLocation

Historic Weather in Chula Vista — Graph

°F

Chula Vista temperature yesterday

Maximum temperature yesterday: 82 °F (at 12:53 PM)
Minimum temperature yesterday: 67 °F (at 5:53 AM)
Average temperature yesterday: 73 °F

Past Weeks' High & Low Weather Summary

 TemperatureHumidityPressure
High93 °F (Aug 28, 11:53 AM)100% (Aug 17, 5:53 AM)29.99 "Hg (Aug 17, 5:53 AM)
Low65 °F (Aug 19, 3:53 AM)24% (Aug 28, 4:53 PM)29.81 "Hg (Aug 16, 3:53 PM)
Average73 °F75%29.90 "Hg
* Reported Aug 16 11:53 AM — Aug 31 11:53 AM, Chula Vista, Weather by CustomWeather, © 2015

Note: Actual official high and low records may vary slightly from our data, if they occured in-between our weather recording intervals... More about our weather records

Advertising

Chula Vista weather history for previous 24 hours

 ConditionsComfort  
Time TempWeatherWind HumidityBarometerVisibility
11:53 AM
Mon, Aug 31
80 °FSunny.5 mph51%29.90 "Hg10 mi
10:53 AM77 °FSunny.N/A58%29.92 "Hg10 mi
9:53 AM73 °FPassing clouds.6 mph71%29.92 "Hg10 mi
8:53 AM70 °FOvercast.3 mph79%29.91 "Hg10 mi
7:53 AM68 °FOvercast.5 mph82%29.90 "Hg8 mi
6:53 AM67 °FOvercast.5 mph87%29.88 "Hg8 mi
5:53 AM66 °FLow clouds.5 mph90%29.87 "Hg10 mi
4:53 AM65 °FPassing clouds.3 mph94%29.86 "Hg9 mi
3:53 AM65 °FLow clouds.3 mph97%29.85 "Hg9 mi
2:53 AM65 °FClear.3 mph94%29.85 "Hg8 mi
1:53 AM66 °FPassing clouds.3 mph90%29.86 "Hg9 mi
1:04 AM66 °FPassing clouds.No wind90%29.87 "Hg10 mi
12:53 AM65 °FClear.No wind94%29.86 "Hg10 mi
11:53 PM
Sun, Aug 30
67 °FPassing clouds.3 mph90%29.86 "Hg10 mi
10:53 PM67 °FClear.No wind90%29.86 "Hg10 mi
9:53 PM68 °FClear.5 mph87%29.87 "Hg10 mi
8:53 PM69 °FClear.6 mph84%29.87 "Hg10 mi
7:53 PM70 °FSunny.5 mph81%29.85 "Hg10 mi
6:53 PM72 °FSunny.7 mph78%29.84 "Hg10 mi
5:53 PM74 °FSunny.3 mph74%29.85 "Hg10 mi
4:53 PM78 °FSunny.8 mph62%29.85 "Hg10 mi
3:53 PM78 °FSunny.10 mph62%29.87 "Hg10 mi
2:53 PM80 °FSunny.10 mph60%29.88 "Hg10 mi
1:53 PM81 °FSunny.10 mph58%29.89 "Hg10 mi
12:53 PM82 °FSunny.8 mph56%29.90 "Hg10 mi
Weather by CustomWeather, © 2015

See weather overviewHow to use our weather pages